OBJECT AH, 63241

Orbit data source: Space-Track

You're viewing an Uncataloged Satellite

Recently launched and/or uncataloged satellites may have evolving metadata. Metadata may include but not limited to: Owner, Maufacturer, Bus, Motor, and Mission.

OBJECT AH, 63241 is a satellite in SSO that was launched on Sat, 15 Mar 2025 UTC via an FALCON 9 launch vehicle from the Air Force Western Test Range (AFWTR). Unknown objects in Earth's orbit typically refer to objects detected orbiting the Earth but have not yet been identified or cataloged. These objects could be anything from previously untracked satellites, spent rocket stages, debris from satellite collisions, or even natural meteoroids temporarily captured by Earth's gravity.

Loading next visibility...
Identifier
63241, 2025-052AH
Orbit
SSO
Country
Flag of TBDTBD
Related business
None
Manufacturer
Unknown
Mission
Operational Commercial Technology
Bus & Motor
Unknown
Mass
Unknown
Launch date (UTC)
2025-03-15 (1 year ago)
Launch vehicle
FALCON 9
Launch site
Air Force Western Test Range (AFWTR)
Object type
Unknown
Shape & HBR
Box, 0.2 m
Radar Cross Section
0.054 m², Medium (>0.1 m² and < 1m²)

Expand to show TLE details & history
Last TLE update: 16 hours ago

TLE from 16 hours ago
0 OBJECT AH
1 63241U 25052AH  26166.44405138  .00008776  00000-0  32702-3 0  9995
2 63241  97.3856  59.9149 0007709 150.9098 209.2572 15.27657396 69674
Epoch: 2026-06-15T10:39Z
TLE epoch observation values (Epoch: 2026-06-15T10:39:26.039Z)
Latitude
-0.00003°
Longitude
-3.67395°
Altitude
490.535 km
Speed
7.617 km/s
True Right ascension
03h 59m 39s
True Declination
0° 00' 00"
Sunlit
Object was in daylight at epoch
Visualization orbit readout
Latitude
Unknown
Longitude
Unknown
Altitude
Unknown
Speed
Unknown
Apparent Right ascension
Unknown
Apparent Declination
Unknown
Sunlit
N/A
Visualization observer readout
Local Sidereal Time
13:41:27
Azimuth
Unknown
Elevation
Unknown
Doppler factor
Unknown
Orbital elements
Apogee altitude
485.059 km
Perigee altitude
474.485 km
Semi-major axis
6,857.909 km
Eccentricity
0.00077
Inclination
97.3856°
RAAN
59.9149°
Arg. of periapsis
150.9098°
True anomaly
209.21406°
Mean anomaly
209.2572°
Eccentric anomaly
209.23563°
Mean motion
3.82169 °/min
Orbital period
94.2 mins
BSTAR
0.00032702
Loading maneuver chart data...
Computing Atmospheric mass density...
Loading historical data...
Loading historical data...
Loading historical data...
Loading historical data...
Loading historical data...
Loading historical data...
Loading historical data...

Documentation

Showing up to 5 results
|